owner,sensor,date,latitude,longitude,vertical_datum,wind_speed,wind_to_direction,wind_speed_of_gust,qcFlag 
COMPS,ioos:station:USF.COMPS:TAR:1,2014-12-01T00:00:00Z,28.1560,-82.7580,7.0,0.82,50.17,1.17,'1111122,1111122,1111122' 
COMPS,ioos:station:USF.COMPS:TAR:1,2014-12-01T00:06:00Z,28.1560,-82.7580,7.0,0.35,43.46,0.58,'1111122,1111122,1111122' 
COMPS,ioos:station:USF.COMPS:TAR:1,2014-12-01T00:12:00Z,28.1560,-82.7580,7.0,0.46,36.53,0.78,'1111122,1111122,1111122' 
COMPS,ioos:station:USF.COMPS:TAR:1,2014-12-01T00:18:00Z,28.1560,-82.7580,7.0,0.33,9.58,0.68,'1111122,1111122,1111122' 
COMPS,ioos:station:USF.COMPS:TAR:1,2014-12-01T00:24:00Z,28.1560,-82.7580,7.0,0.42,15.71,0.68,'1111122,1111122,1111122' 
COMPS,ioos:station:USF.COMPS:TAR:1,2014-12-01T00:30:00Z,28.1560,-82.7580,7.0,0.57,22.62,0.88,'1111122,1111122,1111122' 
COMPS,ioos:station:USF.COMPS:TAR:1,2014-12-01T00:36:00Z,28.1560,-82.7580,7.0,0.39,24.35,0.58,'1111122,1111122,1111122' 
COMPS,ioos:station:USF.COMPS:TAR:1,2014-12-01T00:42:00Z,28.1560,-82.7580,7.0,0.57,43.17,1.17,'1111122,1111122,1111122' 
COMPS,ioos:station:USF.COMPS:TAR:1,2014-12-01T00:48:00Z,28.1560,-82.7580,7.0,0.76,48.1,1.17,'1111122,1111122,1111122' 
COMPS,ioos:station:USF.COMPS:TAR:1,2014-12-01T00:54:00Z,28.1560,-82.7580,7.0,0.61,46.28,0.97,'1111122,1111122,1111122' 
COMPS,ioos:station:USF.COMPS:TAR:1,2014-12-01T01:00:00Z,28.1560,-82.7580,7.0,0.64,59.83,1.07,'1111122,1111122,1111122' 
COMPS,ioos:station:USF.COMPS:TAR:1,2014-12-01T01:06:00Z,28.1560,-82.7580,7.0,0.4,67.8,0.88,'1111122,1111122,1111122' 
COMPS,ioos:station:USF.COMPS:TAR:1,2014-12-01T01:12:00Z,28.1560,-82.7580,7.0,0.35,61.43,0.88,'1111122,1111122,1111122' 
COMPS,ioos:station:USF.COMPS:TAR:1,2014-12-01T01:18:00Z,28.1560,-82.7580,7.0,0.66,61.49,0.97,'1111122,1111122,1111122' 
COMPS,ioos:station:USF.COMPS:TAR:1,2014-12-01T01:24:00Z,28.1560,-82.7580,7.0,0.7,48.14,1.17,'1111122,1111122,1111122' 
COMPS,ioos:station:USF.COMPS:TAR:1,2014-12-01T01:30:00Z,28.1560,-82.7580,7.0,0.62,55.35,0.97,'1111122,1111122,1111122' 
COMPS,ioos:station:USF.COMPS:TAR:1,2014-12-01T01:36:00Z,28.1560,-82.7580,7.0,0.62,48.55,1.17,'1111122,1111122,1111122' 
COMPS,ioos:station:USF.COMPS:TAR:1,2014-12-01T01:42:00Z,28.1560,-82.7580,7.0,0.51,54.45,0.78,'1111122,1111122,1111122' 
COMPS,ioos:station:USF.COMPS:TAR:1,2014-12-01T01:48:00Z,28.1560,-82.7580,7.0,0.74,47.82,0.97,'1111122,1111122,1111122' 
COMPS,ioos:station:USF.COMPS:TAR:1,2014-12-01T01:54:00Z,28.1560,-82.7580,7.0,0.49,55.18,0.97,'1111122,1111122,1111122' 
COMPS,ioos:station:USF.COMPS:TAR:1,2014-12-01T02:00:00Z,28.1560,-82.7580,7.0,0.43,58.11,0.68,'1111122,1111122,1111122' 
COMPS,ioos:station:USF.COMPS:TAR:1,2014-12-01T02:06:00Z,28.1560,-82.7580,7.0,0.41,55.88,0.88,'1111122,1111122,1111122' 
COMPS,ioos:station:USF.COMPS:TAR:1,2014-12-01T02:12:00Z,28.1560,-82.7580,7.0,0.49,49.86,0.88,'1111122,1111122,1111122' 
COMPS,ioos:station:USF.COMPS:TAR:1,2014-12-01T02:18:00Z,28.1560,-82.7580,7.0,0.54,55.29,0.88,'1111122,1111122,1111122' 
COMPS,ioos:station:USF.COMPS:TAR:1,2014-12-01T02:24:00Z,28.1560,-82.7580,7.0,0.54,56.86,1.27,'1111122,1111122,1111122' 
COMPS,ioos:station:USF.COMPS:TAR:1,2014-12-01T02:30:00Z,28.1560,-82.7580,7.0,0.6,62.85,1.37,'1111122,1111122,1111122' 
COMPS,ioos:station:USF.COMPS:TAR:1,2014-12-01T02:36:00Z,28.1560,-82.7580,7.0,0.45,71.81,1.17,'1111122,1111122,1111122' 
COMPS,ioos:station:USF.COMPS:TAR:1,2014-12-01T02:42:00Z,28.1560,-82.7580,7.0,0.53,56.86,1.07,'1111122,1111122,1111122' 
COMPS,ioos:station:USF.COMPS:TAR:1,2014-12-01T02:48:00Z,28.1560,-82.7580,7.0,0.58,51.42,1.17,'1111122,1111122,1111122' 
COMPS,ioos:station:USF.COMPS:TAR:1,2014-12-01T02:54:00Z,28.1560,-82.7580,7.0,0.43,81.45,0.88,'1111122,1111122,1111122' 
COMPS,ioos:station:USF.COMPS:TAR:1,2014-12-01T03:00:00Z,28.1560,-82.7580,7.0,0.31,75.16,0.97,'1111122,1111122,1111122' 
COMPS,ioos:station:USF.COMPS:TAR:1,2014-12-01T03:06:00Z,28.1560,-82.7580,7.0,0.59,57.99,1.46,'1111122,1111122,1111122' 
COMPS,ioos:station:USF.COMPS:TAR:1,2014-12-01T03:12:00Z,28.1560,-82.7580,7.0,0.42,62.69,0.97,'1111122,1111122,1111122' 
COMPS,ioos:station:USF.COMPS:TAR:1,2014-12-01T03:18:00Z,28.1560,-82.7580,7.0,0.42,88.05,0.88,'1111122,1111122,1111122' 
COMPS,ioos:station:USF.COMPS:TAR:1,2014-12-01T03:24:00Z,28.1560,-82.7580,7.0,0.32,66.56,0.97,'1111122,1111122,1111122' 
COMPS,ioos:station:USF.COMPS:TAR:1,2014-12-01T03:30:00Z,28.1560,-82.7580,7.0,0.53,52.25,1.46,'1111122,1111122,1111122' 
COMPS,ioos:station:USF.COMPS:TAR:1,2014-12-01T03:36:00Z,28.1560,-82.7580,7.0,0.39,44.86,0.78,'1111122,1111122,1111122' 
COMPS,ioos:station:USF.COMPS:TAR:1,2014-12-01T03:42:00Z,28.1560,-82.7580,7.0,0.31,29.98,0.78,'1111122,1111122,1111122' 
COMPS,ioos:station:USF.COMPS:TAR:1,2014-12-01T03:48:00Z,28.1560,-82.7580,7.0,0.39,41.44,0.68,'1111122,1111122,1111122' 
COMPS,ioos:station:USF.COMPS:TAR:1,2014-12-01T03:54:00Z,28.1560,-82.7580,7.0,0.48,39.49,0.78,'1111122,1111122,1111122' 
COMPS,ioos:station:USF.COMPS:TAR:1,2014-12-01T04:00:00Z,28.1560,-82.7580,7.0,0.47,37.95,0.68,'1111122,1111122,1111122' 
COMPS,ioos:station:USF.COMPS:TAR:1,2014-12-01T04:06:00Z,28.1560,-82.7580,7.0,0.37,41.29,0.68,'1111122,1111122,1111122' 
COMPS,ioos:station:USF.COMPS:TAR:1,2014-12-01T04:12:00Z,28.1560,-82.7580,7.0,0.54,37.59,0.88,'1111122,1111122,1111122' 
COMPS,ioos:station:USF.COMPS:TAR:1,2014-12-01T04:18:00Z,28.1560,-82.7580,7.0,0.65,45.28,0.88,'1111122,1111122,1111122' 
COMPS,ioos:station:USF.COMPS:TAR:1,2014-12-01T04:24:00Z,28.1560,-82.7580,7.0,0.72,40.75,1.07,'1111122,1111122,1111122' 
COMPS,ioos:station:USF.COMPS:TAR:1,2014-12-01T04:30:00Z,28.1560,-82.7580,7.0,0.82,48.83,1.17,'1111122,1111122,1111122' 
COMPS,ioos:station:USF.COMPS:TAR:1,2014-12-01T04:36:00Z,28.1560,-82.7580,7.0,0.66,40.9,0.97,'1111122,1111122,1111122' 
COMPS,ioos:station:USF.COMPS:TAR:1,2014-12-01T04:42:00Z,28.1560,-82.7580,7.0,0.67,37.96,0.97,'1111122,1111122,1111122' 
COMPS,ioos:station:USF.COMPS:TAR:1,2014-12-01T04:48:00Z,28.1560,-82.7580,7.0,0.52,43.69,0.78,'1111122,1111122,1111122' 
COMPS,ioos:station:USF.COMPS:TAR:1,2014-12-01T04:54:00Z,28.1560,-82.7580,7.0,0.26,51.36,0.58,'1111122,1111122,1111122' 
COMPS,ioos:station:USF.COMPS:TAR:1,2014-12-01T05:00:00Z,28.1560,-82.7580,7.0,0.52,50.18,0.88,'1111122,1111122,1111122' 
COMPS,ioos:station:USF.COMPS:TAR:1,2014-12-01T05:06:00Z,28.1560,-82.7580,7.0,0.66,44.57,0.97,'1111122,1111122,1111122' 
COMPS,ioos:station:USF.COMPS:TAR:1,2014-12-01T05:12:00Z,28.1560,-82.7580,7.0,0.49,43.99,0.78,'1111122,1111122,1111122' 
COMPS,ioos:station:USF.COMPS:TAR:1,2014-12-01T05:18:00Z,28.1560,-82.7580,7.0,0.6,37.63,0.78,'1111122,1111122,1111122' 
COMPS,ioos:station:USF.COMPS:TAR:1,2014-12-01T05:24:00Z,28.1560,-82.7580,7.0,0.7,33.06,1.07,'1111122,1111122,1111122' 
COMPS,ioos:station:USF.COMPS:TAR:1,2014-12-01T05:30:00Z,28.1560,-82.7580,7.0,0.64,26.73,1.07,'1111122,1111122,1111122' 
COMPS,ioos:station:USF.COMPS:TAR:1,2014-12-01T05:36:00Z,28.1560,-82.7580,7.0,0.35,24.64,0.58,'1111122,1111122,1111122' 
COMPS,ioos:station:USF.COMPS:TAR:1,2014-12-01T05:42:00Z,28.1560,-82.7580,7.0,0.34,24.62,0.68,'1111122,1111122,1111122' 
COMPS,ioos:station:USF.COMPS:TAR:1,2014-12-01T05:48:00Z,28.1560,-82.7580,7.0,0.78,30.92,1.17,'1111122,1111122,1111122' 
COMPS,ioos:station:USF.COMPS:TAR:1,2014-12-01T05:54:00Z,28.1560,-82.7580,7.0,0.84,36.47,1.07,'1111122,1111122,1111122' 
COMPS,ioos:station:USF.COMPS:TAR:1,2014-12-01T06:00:00Z,28.1560,-82.7580,7.0,0.59,42.56,0.97,'1111122,1111122,1111122' 
COMPS,ioos:station:USF.COMPS:TAR:1,2014-12-01T06:06:00Z,28.1560,-82.7580,7.0,0.61,27.13,0.88,'1111122,1111122,1111122' 
COMPS,ioos:station:USF.COMPS:TAR:1,2014-12-01T06:12:00Z,28.1560,-82.7580,7.0,0.44,26.54,0.78,'1111122,1111122,1111122' 
COMPS,ioos:station:USF.COMPS:TAR:1,2014-12-01T06:18:00Z,28.1560,-82.7580,7.0,0.59,34.24,0.88,'1111122,1111122,1111122' 
COMPS,ioos:station:USF.COMPS:TAR:1,2014-12-01T06:24:00Z,28.1560,-82.7580,7.0,0.58,22.42,0.78,'1111122,1111122,1111122' 
COMPS,ioos:station:USF.COMPS:TAR:1,2014-12-01T06:30:00Z,28.1560,-82.7580,7.0,0.8,28.85,1.07,'1111122,1111122,1111122' 
COMPS,ioos:station:USF.COMPS:TAR:1,2014-12-01T06:36:00Z,28.1560,-82.7580,7.0,0.7,35.0,0.88,'1111122,1111122,1111122' 
COMPS,ioos:station:USF.COMPS:TAR:1,2014-12-01T06:42:00Z,28.1560,-82.7580,7.0,0.66,36.6,0.88,'1111122,1111122,1111122' 
COMPS,ioos:station:USF.COMPS:TAR:1,2014-12-01T06:48:00Z,28.1560,-82.7580,7.0,0.8,42.38,1.27,'1111122,1111122,1111122' 
COMPS,ioos:station:USF.COMPS:TAR:1,2014-12-01T06:54:00Z,28.1560,-82.7580,7.0,0.96,42.44,1.37,'1111122,1111122,1111122' 
COMPS,ioos:station:USF.COMPS:TAR:1,2014-12-01T07:00:00Z,28.1560,-82.7580,7.0,0.6,49.02,1.56,'1111122,1111122,1111122' 
COMPS,ioos:station:USF.COMPS:TAR:1,2014-12-01T07:06:00Z,28.1560,-82.7580,7.0,0.43,36.78,0.97,'1111122,1111122,1111122' 
COMPS,ioos:station:USF.COMPS:TAR:1,2014-12-01T07:12:00Z,28.1560,-82.7580,7.0,1.07,40.27,1.66,'1111122,1111122,1111122' 
COMPS,ioos:station:USF.COMPS:TAR:1,2014-12-01T07:18:00Z,28.1560,-82.7580,7.0,1.17,40.32,1.56,'1111122,1111122,1111122' 
COMPS,ioos:station:USF.COMPS:TAR:1,2014-12-01T07:24:00Z,28.1560,-82.7580,7.0,1.13,41.4,1.86,'1111122,1111122,1111122' 
COMPS,ioos:station:USF.COMPS:TAR:1,2014-12-01T07:30:00Z,28.1560,-82.7580,7.0,1.18,34.71,1.95,'1111122,1111122,1111122' 
COMPS,ioos:station:USF.COMPS:TAR:1,2014-12-01T07:36:00Z,28.1560,-82.7580,7.0,1.25,40.88,1.66,'1111122,1111122,1111122' 
COMPS,ioos:station:USF.COMPS:TAR:1,2014-12-01T07:42:00Z,28.1560,-82.7580,7.0,1.25,38.24,2.25,'1111122,1111122,1111122' 
COMPS,ioos:station:USF.COMPS:TAR:1,2014-12-01T07:48:00Z,28.1560,-82.7580,7.0,1.1,42.41,1.56,'1111122,1111122,1111122' 
COMPS,ioos:station:USF.COMPS:TAR:1,2014-12-01T07:54:00Z,28.1560,-82.7580,7.0,1.14,39.99,1.76,'1111122,1111122,1111122' 
COMPS,ioos:station:USF.COMPS:TAR:1,2014-12-01T08:00:00Z,28.1560,-82.7580,7.0,1.13,40.72,1.76,'1111122,1111122,1111122' 
COMPS,ioos:station:USF.COMPS:TAR:1,2014-12-01T08:06:00Z,28.1560,-82.7580,7.0,0.63,58.53,1.07,'1111122,1111122,1111122' 
COMPS,ioos:station:USF.COMPS:TAR:1,2014-12-01T08:12:00Z,28.1560,-82.7580,7.0,0.54,76.18,1.17,'1111122,1111122,1111122' 
COMPS,ioos:station:USF.COMPS:TAR:1,2014-12-01T08:18:00Z,28.1560,-82.7580,7.0,0.74,82.99,1.27,'1111122,1111122,1111122' 
COMPS,ioos:station:USF.COMPS:TAR:1,2014-12-01T08:24:00Z,28.1560,-82.7580,7.0,0.66,46.8,1.27,'1111122,1111122,1111122' 
COMPS,ioos:station:USF.COMPS:TAR:1,2014-12-01T08:30:00Z,28.1560,-82.7580,7.0,0.59,56.28,1.17,'1111122,1111122,1111122' 
COMPS,ioos:station:USF.COMPS:TAR:1,2014-12-01T08:36:00Z,28.1560,-82.7580,7.0,0.77,88.51,1.27,'1111122,1111122,1111122' 
COMPS,ioos:station:USF.COMPS:TAR:1,2014-12-01T08:42:00Z,28.1560,-82.7580,7.0,0.69,57.51,1.56,'1111122,1111122,1111122' 
COMPS,ioos:station:USF.COMPS:TAR:1,2014-12-01T08:48:00Z,28.1560,-82.7580,7.0,0.64,37.6,0.97,'1111122,1111122,1111122' 
COMPS,ioos:station:USF.COMPS:TAR:1,2014-12-01T08:54:00Z,28.1560,-82.7580,7.0,0.57,41.69,1.17,'1111122,1111122,1111122' 
COMPS,ioos:station:USF.COMPS:TAR:1,2014-12-01T09:00:00Z,28.1560,-82.7580,7.0,0.38,63.41,0.88,'1111122,1111122,1111122' 
COMPS,ioos:station:USF.COMPS:TAR:1,2014-12-01T09:06:00Z,28.1560,-82.7580,7.0,0.62,51.83,1.07,'1111122,1111122,1111122' 
COMPS,ioos:station:USF.COMPS:TAR:1,2014-12-01T09:12:00Z,28.1560,-82.7580,7.0,0.76,50.13,1.46,'1111122,1111122,1111122' 
COMPS,ioos:station:USF.COMPS:TAR:1,2014-12-01T09:18:00Z,28.1560,-82.7580,7.0,0.77,42.84,1.37,'1111122,1111122,1111122' 
COMPS,ioos:station:USF.COMPS:TAR:1,2014-12-01T09:24:00Z,28.1560,-82.7580,7.0,0.98,32.15,1.86,'1111122,1111122,1111122' 
COMPS,ioos:station:USF.COMPS:TAR:1,2014-12-01T09:30:00Z,28.1560,-82.7580,7.0,1.11,40.36,1.86,'1111122,1111122,1111122' 
COMPS,ioos:station:USF.COMPS:TAR:1,2014-12-01T09:36:00Z,28.1560,-82.7580,7.0,1.41,41.77,2.05,'1111122,1111122,1111122' 
COMPS,ioos:station:USF.COMPS:TAR:1,2014-12-01T09:42:00Z,28.1560,-82.7580,7.0,0.8,54.63,1.46,'1111122,1111122,1111122' 
COMPS,ioos:station:USF.COMPS:TAR:1,2014-12-01T09:48:00Z,28.1560,-82.7580,7.0,0.75,55.37,1.66,'1111122,1111122,1111122' 
COMPS,ioos:station:USF.COMPS:TAR:1,2014-12-01T09:54:00Z,28.1560,-82.7580,7.0,0.91,49.0,1.95,'1111122,1111122,1111122' 
COMPS,ioos:station:USF.COMPS:TAR:1,2014-12-01T10:00:00Z,28.1560,-82.7580,7.0,0.92,64.04,1.56,'1111122,1111122,1111122' 
COMPS,ioos:station:USF.COMPS:TAR:1,2014-12-01T10:06:00Z,28.1560,-82.7580,7.0,1.33,45.86,1.95,'1111122,1111122,1111122' 
COMPS,ioos:station:USF.COMPS:TAR:1,2014-12-01T10:12:00Z,28.1560,-82.7580,7.0,0.83,52.14,2.05,'1111122,1111122,1111122' 
COMPS,ioos:station:USF.COMPS:TAR:1,2014-12-01T10:18:00Z,28.1560,-82.7580,7.0,0.78,82.95,1.76,'1111122,1111122,1111122' 
COMPS,ioos:station:USF.COMPS:TAR:1,2014-12-01T10:24:00Z,28.1560,-82.7580,7.0,0.86,64.21,1.56,'1111122,1111122,1111122' 
COMPS,ioos:station:USF.COMPS:TAR:1,2014-12-01T10:30:00Z,28.1560,-82.7580,7.0,0.99,42.25,1.86,'1111122,1111122,1111122' 
COMPS,ioos:station:USF.COMPS:TAR:1,2014-12-01T10:36:00Z,28.1560,-82.7580,7.0,0.6,91.63,1.56,'1111122,1111122,1111122' 
COMPS,ioos:station:USF.COMPS:TAR:1,2014-12-01T10:42:00Z,28.1560,-82.7580,7.0,0.79,87.79,1.56,'1111122,1111122,1111122' 
COMPS,ioos:station:USF.COMPS:TAR:1,2014-12-01T10:48:00Z,28.1560,-82.7580,7.0,0.74,88.17,1.27,'1111122,1111122,1111122' 
COMPS,ioos:station:USF.COMPS:TAR:1,2014-12-01T10:54:00Z,28.1560,-82.7580,7.0,0.52,50.27,0.88,'1111122,1111122,1111122' 
COMPS,ioos:station:USF.COMPS:TAR:1,2014-12-01T11:00:00Z,28.1560,-82.7580,7.0,0.39,60.85,0.88,'1111122,1111122,1111122' 
COMPS,ioos:station:USF.COMPS:TAR:1,2014-12-01T11:06:00Z,28.1560,-82.7580,7.0,0.56,57.96,0.97,'1111122,1111122,1111122' 
COMPS,ioos:station:USF.COMPS:TAR:1,2014-12-01T11:12:00Z,28.1560,-82.7580,7.0,0.66,45.2,1.37,'1111122,1111122,1111122' 
COMPS,ioos:station:USF.COMPS:TAR:1,2014-12-01T11:18:00Z,28.1560,-82.7580,7.0,1.03,40.09,1.46,'1111122,1111122,1111122' 
COMPS,ioos:station:USF.COMPS:TAR:1,2014-12-01T11:24:00Z,28.1560,-82.7580,7.0,0.98,36.06,1.37,'1111122,1111122,1111122' 
COMPS,ioos:station:USF.COMPS:TAR:1,2014-12-01T11:30:00Z,28.1560,-82.7580,7.0,0.96,35.04,1.37,'1111122,1111122,1111122' 
COMPS,ioos:station:USF.COMPS:TAR:1,2014-12-01T11:36:00Z,28.1560,-82.7580,7.0,1.02,42.1,1.66,'1111122,1111122,1111122' 
COMPS,ioos:station:USF.COMPS:TAR:1,2014-12-01T11:42:00Z,28.1560,-82.7580,7.0,0.85,40.48,1.17,'1111122,1111122,1111122' 
COMPS,ioos:station:USF.COMPS:TAR:1,2014-12-01T11:48:00Z,28.1560,-82.7580,7.0,0.98,39.25,1.66,'1111122,1111122,1111122' 
COMPS,ioos:station:USF.COMPS:TAR:1,2014-12-01T11:54:00Z,28.1560,-82.7580,7.0,0.92,37.66,1.27,'1111122,1111122,1111122' 
COMPS,ioos:station:USF.COMPS:TAR:1,2014-12-01T12:00:00Z,28.1560,-82.7580,7.0,0.83,25.37,1.17,'1111122,1111122,1111122' 
COMPS,ioos:station:USF.COMPS:TAR:1,2014-12-01T12:06:00Z,28.1560,-82.7580,7.0,0.86,6.24,1.07,'1111122,1111122,1111122' 
COMPS,ioos:station:USF.COMPS:TAR:1,2014-12-01T12:12:00Z,28.1560,-82.7580,7.0,0.65,18.38,0.97,'1111122,1111122,1111122' 
COMPS,ioos:station:USF.COMPS:TAR:1,2014-12-01T12:18:00Z,28.1560,-82.7580,7.0,0.77,33.34,1.07,'1111122,1111122,1111122' 
COMPS,ioos:station:USF.COMPS:TAR:1,2014-12-01T12:24:00Z,28.1560,-82.7580,7.0,0.83,45.08,1.37,'1111122,1111122,1111122' 
COMPS,ioos:station:USF.COMPS:TAR:1,2014-12-01T12:30:00Z,28.1560,-82.7580,7.0,1.1,46.07,1.76,'1111122,1111122,1111122' 
COMPS,ioos:station:USF.COMPS:TAR:1,2014-12-01T12:36:00Z,28.1560,-82.7580,7.0,1.09,40.56,1.66,'1111122,1111122,1111122' 
COMPS,ioos:station:USF.COMPS:TAR:1,2014-12-01T12:42:00Z,28.1560,-82.7580,7.0,1.21,43.94,2.25,'1111122,1111122,1111122' 
COMPS,ioos:station:USF.COMPS:TAR:1,2014-12-01T12:48:00Z,28.1560,-82.7580,7.0,0.66,55.29,1.37,'1111122,1111122,1111122' 
COMPS,ioos:station:USF.COMPS:TAR:1,2014-12-01T12:54:00Z,28.1560,-82.7580,7.0,1.08,69.34,1.95,'1111122,1111122,1111122' 
COMPS,ioos:station:USF.COMPS:TAR:1,2014-12-01T13:00:00Z,28.1560,-82.7580,7.0,1.18,50.54,2.15,'1111122,1111122,1111122' 
COMPS,ioos:station:USF.COMPS:TAR:1,2014-12-01T13:06:00Z,28.1560,-82.7580,7.0,1.25,46.44,2.05,'1111122,1111122,1111122' 
COMPS,ioos:station:USF.COMPS:TAR:1,2014-12-01T13:12:00Z,28.1560,-82.7580,7.0,1.08,42.46,2.05,'1111122,1111122,1111122' 
COMPS,ioos:station:USF.COMPS:TAR:1,2014-12-01T13:18:00Z,28.1560,-82.7580,7.0,1.45,46.31,2.45,'1111122,1111122,1111122' 
COMPS,ioos:station:USF.COMPS:TAR:1,2014-12-01T13:24:00Z,28.1560,-82.7580,7.0,1.4,46.53,2.45,'1111122,1111122,1111122' 
COMPS,ioos:station:USF.COMPS:TAR:1,2014-12-01T13:30:00Z,28.1560,-82.7580,7.0,1.36,46.75,2.54,'1111122,1111122,1111122' 
COMPS,ioos:station:USF.COMPS:TAR:1,2014-12-01T13:36:00Z,28.1560,-82.7580,7.0,1.31,60.68,3.23,'1111122,1111122,1111122' 
COMPS,ioos:station:USF.COMPS:TAR:1,2014-12-01T13:42:00Z,28.1560,-82.7580,7.0,1.25,59.68,2.84,'1111122,1111122,1111122' 
COMPS,ioos:station:USF.COMPS:TAR:1,2014-12-01T13:48:00Z,28.1560,-82.7580,7.0,1.75,57.81,2.93,'1111122,1111122,1111122' 
COMPS,ioos:station:USF.COMPS:TAR:1,2014-12-01T13:54:00Z,28.1560,-82.7580,7.0,1.6,61.6,2.84,'1111122,1111122,1111122' 
COMPS,ioos:station:USF.COMPS:TAR:1,2014-12-01T14:00:00Z,28.1560,-82.7580,7.0,1.6,55.1,2.84,'1111122,1111122,1111122' 
COMPS,ioos:station:USF.COMPS:TAR:1,2014-12-01T14:06:00Z,28.1560,-82.7580,7.0,1.5,54.07,2.45,'1111122,1111122,1111122' 
COMPS,ioos:station:USF.COMPS:TAR:1,2014-12-01T14:12:00Z,28.1560,-82.7580,7.0,1.67,65.49,3.52,'1111122,1111122,1111122' 
COMPS,ioos:station:USF.COMPS:TAR:1,2014-12-01T14:18:00Z,28.1560,-82.7580,7.0,1.62,63.18,2.84,'1111122,1111122,1111122' 
COMPS,ioos:station:USF.COMPS:TAR:1,2014-12-01T14:24:00Z,28.1560,-82.7580,7.0,1.44,65.04,2.93,'1111122,1111122,1111122' 
COMPS,ioos:station:USF.COMPS:TAR:1,2014-12-01T14:30:00Z,28.1560,-82.7580,7.0,1.76,64.97,3.72,'1111122,1111122,1111122' 
COMPS,ioos:station:USF.COMPS:TAR:1,2014-12-01T14:36:00Z,28.1560,-82.7580,7.0,1.73,74.5,3.72,'1111122,1111122,1111122' 
COMPS,ioos:station:USF.COMPS:TAR:1,2014-12-01T14:42:00Z,28.1560,-82.7580,7.0,1.51,70.51,3.13,'1111122,1111122,1111122' 
COMPS,ioos:station:USF.COMPS:TAR:1,2014-12-01T14:48:00Z,28.1560,-82.7580,7.0,1.67,79.05,3.72,'1111122,1111122,1111122' 
COMPS,ioos:station:USF.COMPS:TAR:1,2014-12-01T14:54:00Z,28.1560,-82.7580,7.0,1.6,54.6,3.91,'1111122,1111122,1111122' 
COMPS,ioos:station:USF.COMPS:TAR:1,2014-12-01T15:00:00Z,28.1560,-82.7580,7.0,1.66,62.21,3.33,'1111122,1111122,1111122' 
COMPS,ioos:station:USF.COMPS:TAR:1,2014-12-01T15:06:00Z,28.1560,-82.7580,7.0,1.69,62.69,3.72,'1111122,1111122,1111122' 
COMPS,ioos:station:USF.COMPS:TAR:1,2014-12-01T15:12:00Z,28.1560,-82.7580,7.0,1.54,76.76,3.42,'1111122,1111122,1111122' 
COMPS,ioos:station:USF.COMPS:TAR:1,2014-12-01T15:18:00Z,28.1560,-82.7580,7.0,1.32,59.35,3.42,'1111122,1111122,1111122' 
COMPS,ioos:station:USF.COMPS:TAR:1,2014-12-01T15:24:00Z,28.1560,-82.7580,7.0,1.83,57.41,3.33,'1111122,1111122,1111122' 
COMPS,ioos:station:USF.COMPS:TAR:1,2014-12-01T15:30:00Z,28.1560,-82.7580,7.0,1.61,53.09,3.23,'1111122,1111122,1111122' 
COMPS,ioos:station:USF.COMPS:TAR:1,2014-12-01T15:36:00Z,28.1560,-82.7580,7.0,2.12,50.86,3.91,'1111122,1111122,1111122' 
COMPS,ioos:station:USF.COMPS:TAR:1,2014-12-01T15:42:00Z,28.1560,-82.7580,7.0,1.98,58.35,3.82,'1111122,1111122,1111122' 
COMPS,ioos:station:USF.COMPS:TAR:1,2014-12-01T15:48:00Z,28.1560,-82.7580,7.0,2.2,51.52,4.31,'1111122,1111122,1111122' 
COMPS,ioos:station:USF.COMPS:TAR:1,2014-12-01T15:54:00Z,28.1560,-82.7580,7.0,1.61,55.79,4.01,'1111122,1111122,1111122' 
COMPS,ioos:station:USF.COMPS:TAR:1,2014-12-01T16:00:00Z,28.1560,-82.7580,7.0,2.61,53.95,4.5,'1111122,1111122,1111122' 
COMPS,ioos:station:USF.COMPS:TAR:1,2014-12-01T16:06:00Z,28.1560,-82.7580,7.0,3.14,49.04,6.27,'1111122,1111122,1111122' 
COMPS,ioos:station:USF.COMPS:TAR:1,2014-12-01T16:12:00Z,28.1560,-82.7580,7.0,2.26,82.4,5.09,'1111122,1111122,1111122' 
COMPS,ioos:station:USF.COMPS:TAR:1,2014-12-01T16:18:00Z,28.1560,-82.7580,7.0,2.09,82.94,3.82,'1111122,1111122,1111122' 
COMPS,ioos:station:USF.COMPS:TAR:1,2014-12-01T16:24:00Z,28.1560,-82.7580,7.0,1.97,69.85,3.82,'1111122,1111122,1111122' 
COMPS,ioos:station:USF.COMPS:TAR:1,2014-12-01T16:30:00Z,28.1560,-82.7580,7.0,1.57,66.38,3.42,'1111122,1111122,1111122' 
COMPS,ioos:station:USF.COMPS:TAR:1,2014-12-01T16:36:00Z,28.1560,-82.7580,7.0,2.6,43.88,4.99,'1111122,1111122,1111122' 
COMPS,ioos:station:USF.COMPS:TAR:1,2014-12-01T16:42:00Z,28.1560,-82.7580,7.0,1.78,55.95,3.91,'1111122,1111122,1111122' 
COMPS,ioos:station:USF.COMPS:TAR:1,2014-12-01T16:48:00Z,28.1560,-82.7580,7.0,2.41,70.2,4.99,'1111122,1111122,1111122' 
COMPS,ioos:station:USF.COMPS:TAR:1,2014-12-01T16:54:00Z,28.1560,-82.7580,7.0,2.34,95.43,4.7,'1111122,1111122,1111122' 
COMPS,ioos:station:USF.COMPS:TAR:1,2014-12-01T17:00:00Z,28.1560,-82.7580,7.0,2.05,77.32,4.21,'1111122,1111122,1111122' 
COMPS,ioos:station:USF.COMPS:TAR:1,2014-12-01T17:06:00Z,28.1560,-82.7580,7.0,1.87,85.48,3.72,'1111122,1111122,1111122' 
COMPS,ioos:station:USF.COMPS:TAR:1,2014-12-01T17:12:00Z,28.1560,-82.7580,7.0,2.28,102.48,3.91,'1111122,1111122,1111122' 
COMPS,ioos:station:USF.COMPS:TAR:1,2014-12-01T17:18:00Z,28.1560,-82.7580,7.0,2.43,86.24,4.5,'1111122,1111122,1111122' 
COMPS,ioos:station:USF.COMPS:TAR:1,2014-12-01T17:24:00Z,28.1560,-82.7580,7.0,1.38,59.34,3.13,'1111122,1111122,1111122' 
COMPS,ioos:station:USF.COMPS:TAR:1,2014-12-01T17:30:00Z,28.1560,-82.7580,7.0,1.98,61.22,4.21,'1111122,1111122,1111122' 
COMPS,ioos:station:USF.COMPS:TAR:1,2014-12-01T17:36:00Z,28.1560,-82.7580,7.0,2.15,54.46,4.31,'1111122,1111122,1111122' 
COMPS,ioos:station:USF.COMPS:TAR:1,2014-12-01T17:42:00Z,28.1560,-82.7580,7.0,1.97,56.58,3.82,'1111122,1111122,1111122' 
COMPS,ioos:station:USF.COMPS:TAR:1,2014-12-01T17:48:00Z,28.1560,-82.7580,7.0,2.14,52.36,3.62,'1111122,1111122,1111122' 
COMPS,ioos:station:USF.COMPS:TAR:1,2014-12-01T17:54:00Z,28.1560,-82.7580,7.0,2.71,52.18,5.97,'1111122,1111122,1111122' 
COMPS,ioos:station:USF.COMPS:TAR:1,2014-12-01T18:00:00Z,28.1560,-82.7580,7.0,1.8,45.56,3.03,'1111122,1111122,1111122' 
COMPS,ioos:station:USF.COMPS:TAR:1,2014-12-01T18:06:00Z,28.1560,-82.7580,7.0,2.2,55.32,3.33,'1111122,1111122,1111122' 
COMPS,ioos:station:USF.COMPS:TAR:1,2014-12-01T18:12:00Z,28.1560,-82.7580,7.0,2.61,57.41,4.7,'1111122,1111122,1111122' 
COMPS,ioos:station:USF.COMPS:TAR:1,2014-12-01T18:18:00Z,28.1560,-82.7580,7.0,2.39,60.28,4.31,'1111122,1111122,1111122' 
COMPS,ioos:station:USF.COMPS:TAR:1,2014-12-01T18:24:00Z,28.1560,-82.7580,7.0,2.56,105.11,5.39,'1111122,1111122,1111122' 
COMPS,ioos:station:USF.COMPS:TAR:1,2014-12-01T18:30:00Z,28.1560,-82.7580,7.0,1.57,74.37,4.41,'1111122,1111122,1111122' 
COMPS,ioos:station:USF.COMPS:TAR:1,2014-12-01T18:36:00Z,28.1560,-82.7580,7.0,1.93,77.0,3.62,'1111122,1111122,1111122' 
COMPS,ioos:station:USF.COMPS:TAR:1,2014-12-01T18:42:00Z,28.1560,-82.7580,7.0,2.06,75.38,4.21,'1111122,1111122,1111122' 
COMPS,ioos:station:USF.COMPS:TAR:1,2014-12-01T18:48:00Z,28.1560,-82.7580,7.0,2.22,50.64,4.21,'1111122,1111122,1111122' 
COMPS,ioos:station:USF.COMPS:TAR:1,2014-12-01T18:54:00Z,28.1560,-82.7580,7.0,3.53,48.33,6.76,'1111122,1111122,1111122' 
COMPS,ioos:station:USF.COMPS:TAR:1,2014-12-01T19:00:00Z,28.1560,-82.7580,7.0,2.27,59.92,4.9,'1111122,1111122,1111122' 
COMPS,ioos:station:USF.COMPS:TAR:1,2014-12-01T19:06:00Z,28.1560,-82.7580,7.0,3.09,48.64,5.48,'1111122,1111122,1111122' 
COMPS,ioos:station:USF.COMPS:TAR:1,2014-12-01T19:12:00Z,28.1560,-82.7580,7.0,2.7,47.01,5.09,'1111122,1111122,1111122' 
COMPS,ioos:station:USF.COMPS:TAR:1,2014-12-01T19:18:00Z,28.1560,-82.7580,7.0,2.62,50.53,4.11,'1111122,1111122,1111122' 
COMPS,ioos:station:USF.COMPS:TAR:1,2014-12-01T19:24:00Z,28.1560,-82.7580,7.0,2.34,58.36,4.8,'1111122,1111122,1111122' 
COMPS,ioos:station:USF.COMPS:TAR:1,2014-12-01T19:30:00Z,28.1560,-82.7580,7.0,2.52,44.49,4.7,'1111122,1111122,1111122' 
COMPS,ioos:station:USF.COMPS:TAR:1,2014-12-01T19:36:00Z,28.1560,-82.7580,7.0,2.7,44.5,5.19,'1111122,1111122,1111122' 
COMPS,ioos:station:USF.COMPS:TAR:1,2014-12-01T19:42:00Z,28.1560,-82.7580,7.0,2.96,71.38,5.97,'1111122,1111122,1111122' 
COMPS,ioos:station:USF.COMPS:TAR:1,2014-12-01T19:48:00Z,28.1560,-82.7580,7.0,3.85,49.65,6.66,'1111122,1111122,1111122' 